Weather History for KSEG - March, 2013

Change the Weather History Date:

Monday, March 25, 2013

  Actual Average (KIPT) Record (KIPT)
Temperature  
Mean Temperature 36 °F 42 °F  
Max Temperature 39 °F 52 °F 77 °F (1988)
Min Temperature 32 °F 32 °F 6 °F (1906)
Degree Days  
Heating Degree Days 30 23  
Month to date heating degree days 697  
Since 1 July heating degree days 5164  
Cooling Degree Days 0 0  
Month to date cooling degree days 0  
Year to date cooling degree days 0  
Moisture  
Dew Point 31 °F    
Average Humidity 87    
Maximum Humidity 100    
Minimum Humidity 50    
Precipitation  
Precipitation 0.26 in 0.11 in 0.97 in (1909)
Month to date precipitation 2.32  
Year to date precipitation 7.36  
Snow  
Snow 0.00 in 0.20 in 2.40 in (1978)
Month to date snowfall 6.1  
Since 1 July snowfall 34.1  
Snow Depth -    
Sea Level Pressure  
Sea Level Pressure 29.59 in    
Wind  
Wind Speed 5 mph (NNE)    
Max Wind Speed 8 mph    
Max Gust Speed -    
Visibility 4 miles    
Events Fog , Rain , Snow    
T = Trace of Precipitation, MM = Missing Value Source: NWS Daily Summary

Daily Weather History Graph

Daily Weather History Graph

Search for Another Location

Airport or City:

Trip Planner

Search our weather history database for the weather conditions in past years. The results will help you decide how hot, cold, wet, or windy it might be!

Date:

Astronomy

Mar. 25, 2013 Rise Set
Actual Time 7:02 AM EDT 7:25 PM EDT
Civil Twilight 6:34 AM EDT 7:52 PM EDT
Nautical Twilight 6:02 AM EDT 8:24 PM EDT
Astronomical Twilight 5:29 AM EDT 8:58 PM EDT
Moon 5:54 PM EDT (3/25) 5:44 AM EDT (3/25)
Length of Visible Light 13h 17m
Length of Day
12h 23m
Waxing Gibbous, 96% of the Moon is Illuminated
Mar 25
Waxing Gibbous
Mar 27
Full
Apr 3
Last Quarter
Apr 10
New
Apr 18
First Quarter

Hourly Weather History & Observations

Time (EDT) Temp. Windchill Dew Point Humidity Pressure Visibility Wind Dir Wind Speed Gust Speed Precip Events Conditions
12:53 AM 39.0 °F 34.8 °F 21.9 °F 50% 29.65 in 10.0 mi East 5.8 mph - N/A   Overcast
1:53 AM 39.0 °F 34.8 °F 21.9 °F 50% 29.63 in 10.0 mi East 5.8 mph - N/A   Overcast
2:53 AM 37.9 °F 34.4 °F 23.0 °F 55% 29.61 in 10.0 mi East 4.6 mph - N/A   Overcast
3:53 AM 39.0 °F 35.7 °F 23.0 °F 53% 29.59 in 10.0 mi East 4.6 mph - N/A   Overcast
4:53 AM 37.9 °F - 24.1 °F 57% 29.62 in 10.0 mi Calm Calm - N/A   Overcast
5:53 AM 37.0 °F 33.3 °F 26.1 °F 65% 29.61 in 10.0 mi East 4.6 mph - N/A   Overcast
6:44 AM 33.8 °F 30.8 °F 28.4 °F 81% 29.59 in 2.5 mi East 3.5 mph - 0.00 in Snow Light Snow
6:53 AM 34.0 °F 29.8 °F 30.0 °F 85% 29.61 in 1.8 mi ENE 4.6 mph - 0.00 in Snow Light Snow
7:22 AM 33.8 °F 29.6 °F 30.2 °F 87% 29.60 in 0.8 mi NE 4.6 mph - 0.01 in Snow Light Snow
7:37 AM 33.8 °F 28.6 °F 30.2 °F 87% 29.60 in 0.5 mi NE 5.8 mph - 0.03 in Fog , Snow Snow
7:50 AM 32.0 °F 27.5 °F 30.2 °F 93% 29.60 in 0.2 mi NE 4.6 mph - 0.04 in Fog , Snow Snow
7:53 AM 32.0 °F 26.4 °F 30.9 °F 96% 29.61 in 0.2 mi NNE 5.8 mph - 0.05 in Fog , Snow Snow
8:14 AM 32.0 °F 26.4 °F 30.2 °F 93% 29.60 in 0.5 mi NE 5.8 mph - 0.01 in Fog , Snow Light Snow
8:28 AM 33.8 °F 29.6 °F 30.2 °F 87% 29.60 in 0.5 mi NE 4.6 mph - 0.02 in Fog , Snow Snow
8:50 AM 33.8 °F 30.8 °F 30.2 °F 87% 29.60 in 0.8 mi NNE 3.5 mph - 0.03 in Snow Light Snow
8:53 AM 33.1 °F 30.0 °F 30.9 °F 92% 29.61 in 0.8 mi NNE 3.5 mph - 0.03 in Snow Light Snow
9:53 AM 33.1 °F 26.9 °F 30.9 °F 92% 29.59 in 0.5 mi NNE 6.9 mph - 0.04 in Fog , Snow Snow
10:53 AM 33.1 °F 27.7 °F 32.0 °F 96% 29.58 in 0.5 mi NE 5.8 mph - 0.03 in Fog , Snow Snow
11:20 AM 33.8 °F 28.6 °F 32.0 °F 93% 29.56 in 1.0 mi NNE 5.8 mph - 0.01 in Snow Light Snow
11:38 AM 33.8 °F 28.6 °F 30.2 °F 87% 29.56 in 1.0 mi NE 5.8 mph - 0.01 in Snow Light Snow
11:44 AM 33.8 °F 28.6 °F 30.2 °F 87% 29.56 in 1.2 mi ENE 5.8 mph - 0.02 in Snow Light Snow
11:53 AM 34.0 °F 29.8 °F 32.0 °F 92% 29.57 in 1.2 mi NNE 4.6 mph - 0.02 in Snow Light Snow
12:13 PM 33.8 °F 28.6 °F 32.0 °F 93% 29.56 in 1.2 mi NNE 5.8 mph - 0.00 in Snow Light Snow
12:15 PM 33.8 °F 28.6 °F 32.0 °F 93% 29.56 in 1.0 mi NNE 5.8 mph - 0.00 in Snow Light Snow
12:34 PM 33.8 °F 27.7 °F 32.0 °F 93% 29.55 in 1.2 mi NNE 6.9 mph - 0.01 in Snow Light Snow
12:53 PM 34.0 °F 29.8 °F 32.0 °F 92% 29.56 in 1.2 mi NNE 4.6 mph - 0.02 in Snow Light Snow
1:05 PM 33.8 °F 27.7 °F 32.0 °F 93% 29.55 in 1.0 mi NNE 6.9 mph - 0.00 in Snow Light Snow
1:23 PM 35.6 °F 31.7 °F 32.0 °F 87% 29.55 in 1.8 mi NNE 4.6 mph - 0.01 in Snow Light Snow
1:25 PM 35.6 °F 31.7 °F 32.0 °F 87% 29.55 in 2.0 mi NNE 4.6 mph - 0.01 in Snow Light Snow
1:27 PM 35.6 °F 32.8 °F 32.0 °F 87% 29.55 in 1.8 mi NNE 3.5 mph - 0.01 in Snow Light Snow
1:50 PM 35.6 °F 31.7 °F 32.0 °F 87% 29.55 in 1.0 mi NE 4.6 mph - 0.02 in Snow Light Snow
1:53 PM 35.1 °F 30.1 °F 32.0 °F 89% 29.56 in 1.2 mi NNE 5.8 mph - 0.02 in Snow Light Snow
2:13 PM 35.6 °F 29.9 °F 32.0 °F 87% 29.55 in 3.0 mi North 6.9 mph - 0.00 in Snow Light Snow
2:28 PM 35.6 °F 30.7 °F 32.0 °F 87% 29.55 in 2.5 mi NNE 5.8 mph - 0.01 in Snow Light Snow
2:41 PM 35.6 °F 29.9 °F 32.0 °F 87% 29.55 in 1.8 mi NNE 6.9 mph - 0.01 in Snow Light Snow
2:47 PM 35.6 °F 29.2 °F 32.0 °F 87% 29.55 in 2.0 mi NNE 8.1 mph - 0.02 in Snow Light Snow
2:53 PM 35.1 °F 29.3 °F 32.0 °F 89% 29.56 in 2.5 mi NNE 6.9 mph - 0.02 in Snow Light Snow
3:03 PM 35.6 °F 29.9 °F 33.8 °F 93% 29.55 in 4.0 mi NNE 6.9 mph - 0.00 in Snow Light Snow
3:21 PM 35.6 °F 31.7 °F 32.0 °F 87% 29.55 in 3.0 mi NNE 4.6 mph - 0.00 in Snow Light Snow
3:53 PM 36.0 °F 31.1 °F 33.1 °F 89% 29.56 in 5.0 mi NNW 5.8 mph - 0.01 in Rain Light Rain
4:06 PM 35.6 °F 31.7 °F 33.8 °F 93% 29.55 in 5.0 mi NNW 4.6 mph - 0.00 in Rain Light Rain
4:13 PM 35.6 °F 31.7 °F 33.8 °F 93% 29.55 in 7.0 mi NNW 4.6 mph - 0.00 in Rain Light Rain
4:29 PM 37.4 °F 32.8 °F 33.8 °F 87% 29.55 in 10.0 mi NW 5.8 mph - 0.00 in Rain Light Rain
4:53 PM 37.0 °F 32.4 °F 33.1 °F 86% 29.57 in 10.0 mi NNW 5.8 mph - 0.00 in   Overcast
5:53 PM 37.0 °F 31.6 °F 33.1 °F 86% 29.59 in 10.0 mi NNW 6.9 mph - 0.00 in Rain Light Rain
6:01 PM 35.6 °F 29.9 °F 33.8 °F 93% 29.58 in 10.0 mi NNW 6.9 mph - 0.00 in Rain Light Rain
6:13 PM 35.6 °F 29.9 °F 33.8 °F 93% 29.58 in 10.0 mi WNW 6.9 mph - 0.00 in Rain Light Rain
6:53 PM 35.1 °F 29.3 °F 33.1 °F 92% 29.61 in 8.0 mi NW 6.9 mph - 0.00 in   Overcast
7:53 PM 35.1 °F - 32.0 °F 89% 29.64 in 9.0 mi Calm Calm - 0.00 in Rain Light Rain
8:35 PM 33.8 °F - 32.0 °F 93% 29.64 in 6.0 mi Calm Calm - 0.01 in   Overcast
8:53 PM 34.0 °F - 33.1 °F 96% 29.66 in 5.0 mi Calm Calm - 0.01 in Rain Light Rain
9:17 PM 33.8 °F 30.8 °F 33.8 °F 100% 29.65 in 4.0 mi NNW 3.5 mph - 0.00 in Snow Light Snow
9:53 PM 34.0 °F 31.0 °F 32.0 °F 92% 29.68 in 8.0 mi NW 3.5 mph - 0.01 in   Mostly Cloudy
10:05 PM 33.8 °F 30.8 °F 32.0 °F 93% 29.66 in 10.0 mi NW 3.5 mph - N/A   Mostly Cloudy
10:53 PM 34.0 °F - 33.1 °F 96% 29.69 in 7.0 mi Calm Calm - N/A   Overcast
11:53 PM 33.1 °F - 32.0 °F 96% 29.69 in 8.0 mi Calm Calm - N/A   Overcast